Date,TemperatureHighF,TemperatureAvgF,TemperatureLowF,DewpointHighF,DewpointAvgF,DewpointLowF,HumidityHigh,HumidityAvg,HumidityLow,PressureMaxIn,PressureMinIn,WindSpeedMaxMPH,WindSpeedAvgMPH,GustSpeedMaxMPH,PrecipitationSumIn
2013-6-12,92.0,80.5,64.0,78.0,70.7,62.0,92,74,55,29.94,29.82,6,1,12,0.00
2013-6-13,97.0,81.5,70.0,77.0,72.1,66.0,92,76,42,29.83,29.57,8,2,19,0.00
2013-6-14,81.0,72.2,61.0,67.0,60.7,58.0,90,69,46,29.97,29.68,7,2,0,0.00
2013-6-15,87.0,71.7,57.0,68.0,60.9,55.0,92,72,42,30.08,29.97,4,0,0,0.00
2013-6-16,88.0,76.1,62.0,70.0,63.8,56.0,88,67,52,30.11,29.97,6,2,0,0.00
2013-6-17,89.0,78.1,70.0,73.0,68.7,64.0,88,74,57,30.01,29.89,3,1,0,0.00
2013-6-18,87.0,76.2,70.0,75.0,70.3,67.0,92,83,65,29.93,29.71,10,2,20,1.66
2013-6-19,82.0,73.3,66.0,69.0,66.8,64.0,92,81,62,30.07,29.83,6,1,13,0.00
2013-6-20,84.0,71.4,64.0,66.0,63.0,60.0,92,77,52,30.18,30.07,5,1,12,0.00
2013-6-22,78.0,75.1,73.0,73.0,70.5,69.0,90,86,79,30.14,30.07,4,1,13,0.07
2013-6-23,85.0,75.2,69.0,77.0,70.9,67.0,93,86,67,30.17,30.08,3,0,14,0.83
2013-6-24,87.0,75.9,71.0,75.0,72.0,69.0,93,87,66,30.17,30.06,5,0,10,0.03
2013-6-25,91.0,76.7,70.0,77.0,71.4,68.0,93,84,61,30.10,29.98,5,1,17,0.02
2013-6-26,91.0,76.3,69.0,77.0,70.7,66.0,93,83,61,30.00,29.87,9,1,21,0.38
2013-6-27,89.0,74.3,68.0,77.0,70.7,66.0,93,89,63,29.90,29.70,8,1,21,1.24
2013-6-28,92.0,79.0,71.0,78.0,72.8,69.0,93,83,55,29.72,29.55,7,1,18,0.50
2013-6-29,87.0,77.2,69.0,76.0,71.8,67.0,93,84,67,29.70,29.57,3,0,3,0.00
2013-6-30,88.0,77.4,71.0,77.0,72.6,69.0,92,85,68,29.83,29.68,2,0,0,0.00
2013-7-1,83.0,75.6,71.0,75.0,71.9,69.0,93,88,75,29.96,29.80,4,0,0,0.00
2013-7-2,79.0,73.8,71.0,75.0,71.7,69.0,93,92,87,30.15,29.96,2,0,12,0.41
2013-7-3,86.0,77.2,72.0,77.0,73.6,70.0,93,89,74,30.21,30.12,5,0,12,0.24
2013-7-4,92.0,80.7,72.0,76.0,73.0,70.0,93,79,53,30.24,30.14,2,0,9,0.00
2013-7-5,92.0,78.6,70.0,78.0,72.6,68.0,93,83,59,30.24,30.13,1,0,7,0.00
2013-7-6,91.0,79.5,71.0,76.0,72.5,69.0,93,80,56,30.21,30.09,3,0,10,0.00
2013-7-7,92.0,80.1,68.0,76.0,72.1,66.0,93,78,54,30.15,30.02,6,1,12,0.00
2013-7-8,84.0,75.5,72.0,77.0,72.4,70.0,93,90,77,30.13,30.06,6,0,11,0.31